TimeMST,TemperatureF,Dew PointF,Humidity,Sea Level PressureIn,VisibilityMPH,Wind Direction,Wind SpeedMPH,Gust SpeedMPH,PrecipitationIn,Events,Conditions,WindDirDegrees,DateUTC
12:55 AM,27.0,18.0,69,30.15,10.0,WNW,4.6,-,N/A,,Clear,290,2013-01-25 07:55:00
1:55 AM,33.1,24.1,70,30.12,10.0,North,3.5,-,N/A,,Clear,360,2013-01-25 08:55:00
2:55 AM,30.9,24.1,76,30.12,10.0,Calm,Calm,-,N/A,,Clear,0,2013-01-25 09:55:00
3:55 AM,25.0,21.0,85,30.15,10.0,SW,5.8,-,N/A,,Clear,230,2013-01-25 10:55:00
4:55 AM,19.9,18.0,92,30.21,10.0,Calm,Calm,-,N/A,,Clear,0,2013-01-25 11:55:00
5:55 AM,18.0,17.1,96,30.25,10.0,Calm,Calm,-,N/A,,Clear,0,2013-01-25 12:55:00
6:55 AM,17.1,15.1,92,30.28,10.0,North,3.5,-,N/A,,Clear,350,2013-01-25 13:55:00
7:55 AM,21.0,18.0,88,30.28,10.0,North,4.6,-,N/A,,Clear,360,2013-01-25 14:55:00
8:55 AM,34.0,26.1,73,30.23,10.0,SSE,3.5,-,N/A,,Clear,160,2013-01-25 15:55:00
9:55 AM,43.0,24.1,47,30.19,10.0,South,12.7,-,N/A,,Clear,190,2013-01-25 16:55:00
10:55 AM,46.0,25.0,44,30.18,10.0,South,17.3,-,N/A,,Clear,190,2013-01-25 17:55:00
11:55 AM,48.0,24.1,39,30.17,10.0,South,19.6,-,N/A,,Clear,190,2013-01-25 18:55:00
12:55 PM,48.9,25.0,39,30.13,10.0,South,18.4,24.2,N/A,,Clear,180,2013-01-25 19:55:00
1:55 PM,50.0,25.0,38,30.07,10.0,South,16.1,24.2,N/A,,Clear,180,2013-01-25 20:55:00
2:55 PM,51.1,24.1,35,30.07,10.0,South,16.1,24.2,N/A,,Clear,170,2013-01-25 21:55:00
3:55 PM,48.9,24.1,38,30.10,10.0,South,13.8,-,N/A,,Clear,180,2013-01-25 22:55:00
4:55 PM,43.0,24.1,47,30.14,10.0,SSE,8.1,-,N/A,,Clear,160,2013-01-25 23:55:00
5:55 PM,34.0,21.0,59,30.19,10.0,Calm,Calm,-,N/A,,Clear,0,2013-01-26 00:55:00
6:55 PM,27.0,19.9,75,30.22,10.0,Calm,Calm,-,N/A,,Clear,0,2013-01-26 01:55:00
7:55 PM,24.1,19.0,81,30.21,10.0,North,6.9,-,N/A,,Clear,350,2013-01-26 02:55:00
8:55 PM,21.9,18.0,85,30.16,10.0,NNW,3.5,-,N/A,,Clear,340,2013-01-26 03:55:00
9:55 PM,19.9,18.0,92,30.14,10.0,North,3.5,-,N/A,,Clear,350,2013-01-26 04:55:00
10:55 PM,21.9,18.0,85,30.12,10.0,Calm,Calm,-,N/A,,Clear,0,2013-01-26 05:55:00
11:55 PM,19.9,18.0,92,30.09,10.0,NNW,4.6,-,N/A,,Clear,340,2013-01-26 06:55:00